DateTimeUTC,F1_A11,F1_S11,BsB_S11,BsG_S11,BsR_S11,BbsB_S11,BbsG_S11,BbsR_S11,BaB_A11,BaG_A11,BaR_A11,Tu_S11,T_S11,Uu_S11,U_S11,P_S11,T1_A11
2021-03-09T10:00:00Z,00000200,21000000,,,,,,,0000.03,-000.01,0000.10,17.2,24.7,,00.0,0645.0,31.0
2021-03-09T10:01:00Z,00000200,21000000,,,,,,,0000.02,0000.02,-000.64,17.2,24.7,,00.0,0645.1,31.0
2021-03-09T10:02:00Z,00000200,21000000,,,,,,,-000.08,0000.06,0000.35,17.2,24.7,,00.0,0645.1,31.0
2021-03-09T10:03:00Z,00000200,61000000,,,,,,,-000.18,-000.26,-000.08,17.2,24.7,,00.0,0645.1,30.9
2021-03-09T10:04:00Z,00000200,41000000,-000.39,-000.10,0000.16,0000.14,-000.16,-000.01,0000.06,0000.23,-000.04,17.4,24.5,,00.0,0645.9,30.9
2021-03-09T10:05:00Z,00000200,01000000,-000.23,0000.15,-000.12,-000.22,-000.16,-000.01,-000.09,-000.30,0000.16,17.4,24.5,,00.0,0646.0,31.0
2021-03-09T10:06:00Z,00000200,01000000,0000.08,0000.10,0000.02,0000.12,-000.13,0000.01,0000.32,0000.02,-000.18,17.4,24.5,,00.0,0646.0,30.9
2021-03-09T10:07:00Z,00000200,01000000,0000.16,0000.01,-000.12,0000.43,-000.10,0000.07,-000.04,0000.08,0000.29,17.4,24.5,,00.0,0646.0,30.9
2021-03-09T10:08:00Z,00000200,01000000,-000.31,0000.17,-000.06,0000.00,-000.14,-000.11,-000.04,0000.09,0000.13,17.3,24.4,,00.0,0646.0,30.9
2021-03-09T10:09:00Z,00000200,01000000,0000.11,-000.11,0000.04,-000.48,-000.10,-000.14,0000.32,0000.25,-000.15,17.3,24.4,,00.0,0646.0,30.9
2021-03-09T10:10:00Z,00000200,01000000,-000.18,0000.27,0000.08,-000.15,-000.14,0000.10,0000.26,0000.26,0000.40,17.3,24.4,,00.0,0646.0,30.9
2021-03-09T10:11:00Z,00000200,01000000,0000.43,0000.15,-000.08,-000.14,0000.06,-000.16,-000.29,-000.19,-000.39,17.3,24.4,,00.0,0646.0,31.0
2021-03-09T10:12:00Z,00000200,01000000,-000.27,0000.18,0000.08,-000.43,-000.10,-000.06,0000.20,0000.13,0000.20,17.3,24.4,,00.0,0646.0,31.0
2021-03-09T10:13:00Z,00000200,01000000,-000.15,0000.00,-000.05,-000.28,0000.02,-000.21,0000.13,0000.22,0000.37,17.3,24.4,,00.0,0646.0,30.9
2021-03-09T10:14:00Z,00000200,01000000,0000.20,0000.07,-000.12,0000.14,0000.06,0000.02,0000.54,0000.27,-000.10,17.3,24.4,,00.0,0646.0,30.9
2021-03-09T10:15:00Z,00000200,01000000,-000.03,-000.02,-000.07,-000.16,-000.08,0000.03,0000.09,0000.36,0000.25,17.3,24.4,,00.0,0646.0,30.9
2021-03-09T10:16:00Z,00000200,01000000,-000.38,0000.01,-000.26,-000.08,-000.03,-000.24,0000.15,0000.07,-000.18,17.3,24.4,,00.0,0646.0,30.9
2021-03-09T10:17:00Z,00000200,01000000,-000.37,0000.35,-000.17,-000.17,-000.05,0000.01,0000.10,0000.26,0000.35,17.3,24.3,,00.0,0646.0,30.9
2021-03-09T10:18:00Z,00000200,01000000,0000.67,0000.15,-000.29,-000.11,0000.01,-000.17,0000.19,-000.03,0000.10,17.2,24.3,,00.0,0646.0,30.9
2021-03-09T10:19:00Z,00000200,01010000,-000.44,0000.33,-000.01,0000.14,0000.14,-000.15,-000.17,-000.07,-000.09,17.2,24.3,,00.0,0646.0,30.9
2021-03-09T10:20:00Z,00000200,01000000,-000.02,0000.04,-000.27,-000.44,-000.13,-000.00,0000.14,0000.37,0000.19,17.2,24.3,,00.0,0645.9,30.9
2021-03-09T10:21:00Z,00000200,01000000,-000.20,-000.06,0000.13,-000.03,-000.26,0000.16,0000.38,-000.08,0000.17,17.2,24.3,,00.0,0646.0,30.9
2021-03-09T10:22:00Z,00000200,01000000,-000.36,0000.16,-000.27,-000.45,-000.36,0000.12,-000.16,0000.21,-000.00,17.2,24.3,,00.0,0646.0,30.9
2021-03-09T10:23:00Z,00000200,01000000,0000.14,-000.06,0000.11,0000.10,0000.04,-000.14,0000.17,-000.03,-000.04,17.2,24.3,,00.0,0646.0,30.9
2021-03-09T10:24:00Z,00000200,01000000,-000.12,0000.21,-000.10,-000.26,0000.05,0000.34,0001.03,0000.62,0000.76,17.2,24.3,,00.0,0646.0,30.9
2021-03-09T10:25:00Z,00000200,01000000,0000.49,0000.18,0000.07,-000.77,-000.04,-000.06,0004.13,0003.86,0003.02,17.2,24.3,,00.0,0646.0,30.9
2021-03-09T10:26:00Z,00000200,01000000,0000.14,0000.44,0000.27,-000.13,0000.10,0000.12,0001.73,0001.62,0001.11,17.2,24.3,,00.0,0646.0,30.9
2021-03-09T10:27:00Z,00000200,01000000,-000.27,0000.19,-000.05,-000.19,-000.00,-000.09,0000.43,0000.38,0000.35,17.1,24.3,,00.0,0646.0,30.9
2021-03-09T10:28:00Z,00000200,01000000,-000.07,0000.27,-000.13,0000.08,0000.05,-000.10,-000.07,-000.36,-000.23,17.1,24.2,,00.0,0646.0,30.9
2021-03-09T10:29:00Z,00000200,01000000,0000.10,0000.32,-000.05,-000.22,0000.04,-000.12,0000.94,0001.36,0000.86,17.1,24.2,,00.0,0646.0,30.9
2021-03-09T10:30:00Z,00000200,01000000,0000.31,0000.18,0000.27,0000.43,-000.07,-000.01,0002.52,0002.03,0002.07,17.2,24.2,,00.0,0646.0,31.0
2021-03-09T10:31:00Z,00000200,01000000,0000.59,0000.24,0000.20,-000.31,-000.13,0000.10,0001.07,0000.76,0000.28,17.3,24.3,,00.0,0645.9,31.0
2021-03-09T10:32:00Z,00000200,01000000,0000.49,-000.00,0000.06,0000.00,-000.08,0000.08,0001.64,0002.15,0001.74,17.4,24.3,,00.0,0646.0,31.0
2021-03-09T10:33:00Z,00000200,01000000,0004.11,0003.09,0001.68,0000.95,0000.79,0000.21,0044.20,0040.27,0031.29,17.5,24.4,,00.0,0646.0,31.0
2021-03-09T10:34:00Z,00000200,01000000,0008.81,0006.68,0004.24,0001.99,0001.56,0001.40,0124.31,0114.93,0091.80,17.5,24.4,,00.0,0646.0,31.0
2021-03-09T10:35:00Z,00000200,01000000,0016.30,0012.09,0007.80,0003.68,0002.80,0002.12,0217.54,0202.03,0160.68,17.6,24.4,,00.0,0645.9,31.0
2021-03-09T10:36:00Z,00000200,01000000,0020.62,0015.63,0009.85,0003.97,0003.31,0002.68,0279.85,0258.68,0207.01,17.6,24.5,,00.0,0645.9,31.0
2021-03-09T10:37:00Z,00000200,01000000,0018.19,0013.32,0008.62,0003.39,0003.28,0002.39,0257.19,0238.26,0191.23,17.6,24.5,,00.0,0645.9,31.0
2021-03-09T10:38:00Z,00000200,01000000,0011.85,0008.77,0005.52,0001.83,0002.14,0001.43,0172.15,0160.10,0127.93,17.6,24.5,,00.0,0645.9,31.0
2021-03-09T10:39:00Z,00000200,01000000,0006.99,0005.68,0003.50,0001.29,0001.36,0000.77,0110.52,0102.38,0082.39,17.6,24.4,,00.0,0645.9,31.0
2021-03-09T10:40:00Z,00000200,01000000,0004.67,0003.45,0002.39,0000.80,0000.99,0000.75,0073.33,0068.07,0054.21,17.6,24.5,,00.0,0645.9,31.0
2021-03-09T10:41:00Z,00000200,01000000,0002.63,0002.27,0001.43,0000.21,0000.58,0000.31,0047.65,0044.72,0035.40,17.5,24.5,,00.0,0645.9,31.0
2021-03-09T10:42:00Z,00000200,01000000,-000.31,0000.53,0000.21,-000.23,-000.02,-000.02,0008.33,0007.18,0006.00,17.5,24.5,,00.0,0645.9,31.0
2021-03-09T10:43:00Z,00000200,01000000,-000.09,-000.06,-000.06,0000.04,0000.27,0000.07,0002.64,0002.73,0001.84,17.5,24.4,,00.0,0645.9,31.0
2021-03-09T10:44:00Z,00000200,01000000,-000.26,0000.22,-000.12,0000.08,-000.28,-000.19,0002.24,0001.93,0001.59,17.5,24.4,,00.0,0645.9,31.0
2021-03-09T10:45:00Z,00000200,01000000,-000.07,0000.00,-000.12,-000.01,0000.12,-000.15,0001.08,0001.27,0001.06,17.6,24.5,,00.0,0645.9,31.0
2021-03-09T10:46:00Z,00000200,01000000,-000.19,0000.14,0000.04,0000.13,0000.16,0000.10,0001.55,0001.56,0000.92,17.6,24.5,,00.0,0645.8,31.0
2021-03-09T10:47:00Z,00000200,01000000,-000.48,-000.03,-000.00,0000.03,-000.00,0000.01,0001.36,0001.20,0001.16,17.6,24.5,,00.0,0645.8,31.0
2021-03-09T10:48:00Z,00000200,01000000,0000.24,0000.06,0000.05,-000.37,0000.22,0000.29,0001.05,0001.11,0000.84,17.7,24.5,,00.0,0645.8,31.0
2021-03-09T10:49:00Z,00000200,01000000,-000.31,0000.36,-000.34,-000.09,-000.18,-000.12,0001.57,0001.24,0001.10,17.6,24.5,,00.0,0645.8,31.0
2021-03-09T10:50:00Z,00000200,01000000,0000.57,-000.14,0000.04,-000.17,0000.03,-000.08,0001.10,0000.79,0000.63,17.6,24.5,,00.0,0645.8,31.0
2021-03-09T10:51:00Z,00000200,01000000,0000.06,0000.32,-000.01,-000.06,0000.18,0000.08,0001.02,0001.28,0000.76,17.6,24.5,,00.0,0645.8,31.0
2021-03-09T10:52:00Z,00000200,01000000,-000.28,-000.08,-000.20,-000.09,-000.04,0000.06,0001.04,0000.70,0000.81,17.6,24.5,,00.0,0645.8,30.9
2021-03-09T10:53:00Z,00000200,01000000,0000.45,0000.29,-000.27,-000.08,0000.07,-000.27,0001.02,0001.09,0000.71,17.6,24.5,,00.0,0645.8,31.0
2021-03-09T10:54:00Z,00000200,01000000,0000.68,0000.10,-000.14,-000.16,-000.07,-000.05,0000.87,0000.67,0000.26,17.6,24.5,,00.0,0645.8,31.0
2021-03-09T10:55:00Z,00000200,01000000,0000.07,-000.23,-000.06,0000.06,0000.13,0000.09,0000.68,0000.43,0000.47,17.6,24.5,,00.0,0645.8,31.0
2021-03-09T10:56:00Z,00000200,01000000,-000.07,0000.15,0000.23,-000.21,-000.05,-000.04,0000.81,0000.99,0000.72,17.6,24.5,,00.0,0645.8,31.0
2021-03-09T10:57:00Z,00000200,41000000,,,,,,,-000.41,-000.57,-000.15,17.6,24.5,,00.0,0645.8,30.9
2021-03-09T10:58:00Z,00000200,61000000,,,,,,,0001.22,0001.41,0000.88,17.3,24.6,,00.0,0644.8,31.0
2021-03-09T10:59:00Z,00000200,21000000,,,,,,,0001.23,0000.97,0000.44,17.3,24.7,,00.0,0644.8,30.9
